User: anonymous   Login
Location: Unspecified
(0.0000°N, 0.0000°E)
Time: 06:48:26
(UTC+00:00)
Language:

STARLINK-30809 - Orbit

View from above orbital plane
View from above orbital plane
View from above satellite
View from above satellite

Ground track
Ground track

The orbit is defined by the following mean orbital elements,

1 58183U          26145.07851221 +.00000000 +00000-0 +40086-4 0 00004
2 58183  43.0020  72.3475 0000928 254.4796 105.5953 15.27571137    07
Epoch (UTC): 25 May 2026 01:53:03
Eccentricity: 0.0000928
inclination: 43.0020°
perigee height: 482 km
apogee height: 484 km
right ascension of ascending node: 72.3475°
argument of perigee: 254.4796°
revolutions per day: 15.27571137
mean anomaly at epoch: 105.5953°

The dashed part of the orbit path shows where the satellite is in the earth's shadow,  

DLR